Regional Weather Roundup
Issued by NWS

Home | Current Version | Previous Version | Text Only | Print | Product List | Glossary On
Versions: 1 2 3 4 5 6 7 8 9 10 11 12 13 14 15 16 17 18 19 20 21 22 23 24 25 26 27 28 29 30 31 32 33 34 35 36 37 38 39 40 41 42 43 44 45 46 47 48 49 50
000
ASUS45 KTFX 060419
RWRMT
MONTANA HOURLY WEATHER ROUNDUP
NATIONAL WEATHER SERVICE GREAT FALLS MT
919 PM MST THU MAR 5 2015

NOTE: "FAIR" INDICATES FEW OR NO CLOUDS BELOW 12000 FEET WITH NO
SIGNIFICANT WEATHER AND/OR OBSTRUCTIONS TO VISIBILITY.

* THESE STATIONS ARE NOT UNDER NWS QUALITY CONTROL. THEY DO NOT
   REPORT WEATHER SUCH AS PRECIPITATION OR FOG.

MTZ001>007-043-060500-
WEST OF THE DIVIDE
CITY           SKY/WX    TMP DP  RH WIND       PRES   REMARKS
KALISPELL      PTCLDY    25  19  78 SW3       30.27R
MISSOULA       PTCLDY    34  18  52 S3        30.30R
BUTTE          PTCLDY    36  10  34 NW8       30.24S WCI  30
MULLAN PASS    PTCLDY    28  16  61 W3        30.27R
* ANACONDA     PTCLDY    39  12  33 S3         N/A
* ESSEX        N/A       25  16  69 S1         N/A
* EUREKA APT   PTCLDY    30  19  64 CALM      30.27S
* HAMILTON APT CLEAR     48  10  21 S7        30.29R
* LIBBY APT    PTCLDY    30  19  64 SW3       30.30R
* LINCOLN      N/A       36  12  37 SW4G13     N/A
* LOOKOUT PASS N/A       32  18  56 VRB2       N/A
* POLSON       N/A       33  11  40 N/A        N/A
* RONAN APT    PTCLDY    30  27  89 N/A        N/A
* SEELEY LAKE  N/A       27  14  58 NE4        N/A
* THOMP F APT  CLEAR     27  12  53 NE3        N/A
$$

MTZ008-052>055-060500-
SOUTHWEST MONTANA
CITY           SKY/WX    TMP DP  RH WIND       PRES   REMARKS
BOZEMAN        CLOUDY    30  23  75 SE6       30.23S WCI  24
DILLON         MOCLDY    37  12  36 SW13      30.25R WCI  29
* W YELLOWSTON CLEAR     22  12  65 S1G6       N/A
* THREE FORKS  PTCLDY    39   7  26 N/A        N/A
* BOULDER HILL N/A       36   7  30 SW3G10     N/A
* MONIDA PASS  N/A       24  13  63 SE13       N/A   WCI  12
* RAYNOLDS PAS N/A       22   7  52 S8         N/A   WCI  13
* WHITEHALL    N/A       39   8  27 NW6        N/A   WCI  35
* WISE RIVER   N/A       37   9  31 SW10       N/A   WCI  30
$$

MTZ009>010-012-014-046-048-049-054-060500-
EAST SLOPES AND CENTRAL MONTANA
CITY           SKY/WX    TMP DP  RH WIND       PRES   REMARKS
CUT BANK       MOCLDY    37  16  42 W28G37    30.07S WCI  25
GREAT FALLS    MOCLDY    36  14  40 SW12      30.11S WCI  28
HELENA         PTCLDY    39  16  39 CALM      30.21R
MALMSTROM AFB  MOCLDY    41  14  33 W10       30.12S
* CONRAD       PTCLDY    36  16  44 SW5        N/A   WCI  32
* DEARBORN     N/A       45  14  28 S2         N/A
* EAST GLACIER N/A       35  12  38 W34G40     N/A   WCI  21
* MONARCH      N/A       36   8  31 S12G19     N/A   WCI  28
* PENDROY      N/A       39  16  39 W24G32     N/A   WCI  28
* ROGERS PASS  N/A       36  10  34 SE13G24    N/A   WCI  27
* SWEET GRASS  N/A       37  18  46 W19G24     N/A   WCI  27
* WHITE SULPH  N/A       38  11  33 W3G11      N/A
$$

MTZ011-013-016-021-035-040-045-047-050-051-060500-
NORTH CENTRAL MONTANA
CITY           SKY/WX    TMP DP  RH WIND       PRES   REMARKS
HAVRE          MOCLDY    27  18  69 SW9       30.08S WCI  18
LEWISTOWN      CLEAR     34  21  59 W6        30.11S WCI  29
* N BAR RANCH  CLEAR     32  16  52 CALM      30.12R
* CHINOOK      PTCLDY    30  18  61 CALM      30.08S
* FORT BENTON  MOCLDY    37  14  39 SW6       30.12S WCI  32
* CHESTER      N/A       37  16  42 NW9        N/A   WCI  30
* DENTON       N/A       35  17  48 SW8        N/A   WCI  28
* GEYSER       N/A       39  14  36 W14G24     N/A   WCI  31
* JUDITH GAP   N/A       33  16  50 SW9        N/A   WCI  25
* LOMA         N/A       39  14  36 SW8        N/A   WCI  33
$$

MTZ017>020-022>027-061-062-060500-
NORTHEAST MONTANA
CITY           SKY/WX    TMP DP  RH WIND       PRES   REMARKS
GLASGOW        CLOUDY    34  18  52 N7        30.05S WCI  28
GLENDIVE       CLOUDY    36  18  48 W10       30.07R WCI  29
JORDAN         PTCLDY    28  21  75 W8        30.08R WCI  20
SIDNEY         CLOUDY    34  18  52 W8        30.07R WCI  27
WOLF POINT     CLOUDY    34  21  59 W5        30.05S WCI  29
* BEAVER HILL  N/A       35  15  44 SW11       N/A   WCI  27
* CIRCLE       N/A       36  21  54 W1         N/A
* LINDSAY DVD  N/A       36  15  42 W11        N/A   WCI  28
* NAVAJO       N/A       31  21  66 NW13       N/A   WCI  21
* PLENTYWOOD A CLEAR     27  19  72 NW8       30.03R WCI  19
* POPLAR APT   PTCLDY    36  19  50 CALM      30.06R
* SACO         N/A       36  19  50 W6         N/A   WCI  31
$$

MTZ028>042-056>058-060500-
SOUTHCENTRAL AND SOUTHEAST MONTANA
CITY           SKY/WX    TMP DP  RH WIND       PRES   REMARKS
BAKER          PTCLDY    30  16  56 SW6       30.06F WCI  24
BILLINGS       CLOUDY    39  16  39 SW17      30.15R WCI  30
LIVINGSTON     MOCLDY    45  10  24 W16G28    30.18S
MILES CITY     PTCLDY    34  16  48 N/A       30.09S
* BIG TIMBER A CLOUDY    43  12  28 SW22G31   30.14F
* FORSYTH APT  PTCLDY    39  16  39 SW5       30.10F WCI  35
* LAUREL APT   CLOUDY    37  14  39 N/A        N/A
* ROUNDUP APT  MOCLDY    39  10  30 N/A        N/A
* ALZADA       N/A       30  20  66 W4         N/A
* HYSHAM       N/A       40   8  26 NW2        N/A
* LAME DEER    N/A       35  17  48 W8         N/A   WCI  28
* REED POINT   N/A       46  15  29 SW6G12     N/A
* ROSCOE HILL  N/A       38   7  27 W6         N/A   WCI  33
$$

REGIONAL REPORTS...DAKOTAS
CITY           SKY/WX    TMP DP  RH WIND       PRES   REMARKS
WILLISTON      CLOUDY    34  21  59 NW9       30.02S WCI  27
DICKINSON      CLOUDY    30  16  56 W8        30.01F WCI  22
BEACH          CLOUDY    27  16  63 SW9       30.04F WCI  18
CROSBY         CLEAR     25  19  78 NW13      30.01R WCI  13
TIOGA          CLEAR     21  18  88 W12       30.02R WCI   9
WATFORD CITY   CLOUDY    32  19  59 SW9       30.00R WCI  24
BISMARCK       CLEAR     25  12  58 SW5       30.05F WCI  19
GRAND FORKS    MOCLDY    18  10  71 S17       30.01F WCI   3
FARGO          CLEAR     16   7  67 S13       30.10F WCI   2
BUFFALO SD     CLEAR     28  12  51 W7        30.02F WCI  21
RAPID CITY     PTCLDY    28  16  61 SW3       30.14S
$$

REGIONAL REPORTS...WYOMING/IDAHO/WASHINGTON
CITY           SKY/WX    TMP DP  RH WIND       PRES   REMARKS
GILLETTE       PTCLDY    34  18  52 W10       30.15R WCI  26
SHERIDAN       CLOUDY    32  21  64 E3        30.16R
CODY           MOCLDY    43   9  25 W16G24    30.18R
YELLOWSTONE LA PTCLDY    21   9  60 CALM      30.34R
SALMON         CLEAR     28  16  61 CALM      30.31R
MULLAN PASS    PTCLDY    28  16  61 W3        30.27S
SAND POINT     PTCLDY    32  21  64 CALM      30.31S
SPOKANE        FAIR      39  21  48 S3        30.30R
$$

REGIONAL REPORTS...ALBERTA
CITY           SKY/WX    TMP DP  RH WIND       PRES   REMARKS
CALGARY        FAIR      43  18  37 W13G20    29.99S
LETHBRIDGE     MOCLDY    43  18  37 W25G33    30.04R
MEDICINE HAT   PTCLDY    32  27  82 SE2       30.04F
EDMONTON       MOCLDY    30  21  69 S7        29.92F WCI  23
WATERTON GATE  N/A       37  16  42 SW26G40    N/A   WCI  25
CARDSTON       N/A       41  21  45 W16G22     N/A
MILK RIVER     N/A       37  25  62 W18G24     N/A   WCI  27
$$

REGIONAL REPORTS...SASKATCHEWAN
CITY           SKY/WX    TMP DP  RH WIND       PRES   REMARKS
SWIFT CURRENT  CLEAR     23  19  85 SW10      30.01F WCI  13
REGINA         N/A       12  10  92 NW10      30.00R WCI  -1
VAL MARIE      N/A       34  25  70 NW10       N/A   WCI  26
ASSINIBOIA     N/A       27  19  72 NW12       N/A   WCI  16
CORONACH       N/A       23  21  92 W8         N/A   WCI  14

$$




USA.gov is the U.S. government's official web portal to all federal, state and local government web resources and services.